SCP
0 0 0 0 0 0 0 0 0 0 0 0 0 0 0 0 0 0 0 0 0 0 0 0 0 0 0 0 0 0 0 0 0 0 0 0 0 0 0 -0 0 0 -0 -0
0 0 0 0 0 0 0 0 0 0 0 0 0 0 0 0 0 0 0 0 0 0 0 0 0 0 0 0 0 0 0 0 0 0 0 0 0 0 0 0 0 0 0 -0
0 -0 0 0 0 0 0 0 0 0 0 0 0 0 0 0 0 0 0 0 0 0 0 0 0 0 0 0 0 0 0 0 0 0 0 0 0 0 0 0 0 0 0 0
0 0 0 0 0 0 0 0 0 0 0 0 0 0 0 0 0 0 0 0 0 0 0 0 0 0 0 0 0 0 0 0 0 0 0 0 0 0 0 0 0 0 0 0
0 0 0 0 0 0 0 0 0 0 0 0 0 0 0 0 0 0 0 0 0 0 0 0 0 0 0 0 0 0 0 0 0 0 0 0 0 0 0 0 0 0 0 0
0 0 0 0 0 0 0 0 0 0 0 0 0 0 0 0 0 0 0 0 0 0 0 0 0 0 0 0 0 0 0 0 0 0 0 0 0 0 0 0 0 0 0 0
0 0 0 0 0 0 0 0 0 0 0 0 0 0 0 0 0 0 0 0 0 0 0 0 0 0 0 0 0 0 0 0 0 0 0 0 0 0 0 0 0 0 0 0
0 0 0 0 -0 0 0 -0 0 0 -0 -0 0 0 -0 -0 -0 -0 0 0 0 0 0 0 0 0 0 0 0 0 0 0 0 0 0 0 0 0 0 0 0 0 0 0
0 -0 -0 0 -0 -0 -0 0 0 -0 -0 -0 0 0 0 0 0 0 0 0 0 0 0 0 0 0 0 0 0 0 0 0 0 0 0 0 0 0 0 0 0 0 0 0
0 0 0 0 0 0 0 0 0 0 0 0 0 -0 -0 -0 -0 -0 -0 -0 0 0 0 0 0 0 0 0 0 0 0 0 0 0 0 0 0 0 0 0 0 0 0 0
0 0 0 0 0 0 0 0 0 0 0 0 0 0 0 0 0 0 0 0 0 0 0 0 0 0 0 0 0 0 0 0 0 0 0 0 0 0 0 0 0 0 0 0
0 0 0 0 0 0 0 0 0 0 0 0 0 0 0 0 0 0 0 0 0 0 0 0 0 0 0 0 0 0 0 0 0 0 0 0 0 0 0 0 0 0 0 0
0 0 0 -0 -0 -0 -0 -0 0 0 0 0 0 0 0 0 0 0 0 0 0 0 0 0 0 0 0 0 0 0 0 0 0 0 0 0 0 0 0 0 0 0 0 0
0 0 0 0 0 0 0 0 0 0 0 0 0 0 0 0 0 0 0 0 0 0 0 0 0 0 0 0 0 0 0 0 0 0 0 0 0 0 0 0 0 0 0 0
0 0 0 0 0 0 0 0 0 0 0 0 0 0 0 0 0 0 0 0 0 0 0 0 0 0 0 0 0 0 0 0 0 0 0 0 0 0 0 0 0 0 0 0
0 0 0 0 0 0 0 0 0 0 -0 0 0 0 -0 0 0 0 0 0 0 0 0 0 0 0 0 0 0 0 0 0 0 0 0 0 0 0 0 0 0 0 0 0
0 0 0 0 0 0 0 0 0 0 0 0 0 0 0 0 0 0 0 0 0 0 0 0 0 0 0 0 0 0 0 0 0 0 0 0 0 0 0 0 0 0 0 0
0 0 0 0 0 0 0 0 0 0 0 0 0 0 0 0 0 0 0 0 0 0 0 0 0 0 0 0 0 0 0 0 0 0 0 0 0 0 0 0 0 0 0 0
0 0 0 0 0 0 0 0 0 0 0 0 0 0 0 0 0 0 0 0 0 0 0 0 0 0 0 0 0 0 0 0 0 0 0 0 0 0 0 0 0 0 0 0
0 0 0 0 0 0 0 0 0 0 0 0 0 0 0 0 0 0 0 0 0 0 0 0 0 0 0 0 0 0 0 0 0 0 0 0 0 0 0 0 0 0 0 0
0 0 0 0 0 0 0 0 0 0 0 0 0 0 0 0 -0 0 0 0 0 0 0 0 0 0 0 0 0 0 0 0 0 0 0 0 0 0 0 0 0 0 0 0
0 0 0 0 0 0 0 0 0 0 0 0 0 0 0 -0 0 0 0 0 0 0 0 0 0 0 0 0 0 0 0 0 0 0 0 0 0 0 0 0 0 0 0 0
0 0 0 0 0 0 0 0 0 0 0 0 0 0 0 0 0 0 0 0 0 0 0 0 0 0 0 0 0 0 0 0 0 0 0 0 0 0 0 0 0 0 0 0
0 -0 -0 -0 0 0 0 0 0 0 0 0 0 0 0 0 0 0 0 0 0 0 0 0 0 0 0 0 0 0 0 0 0 0 0 0 0 0 0 0 0 0 0 0
-0 0 0 0 0 0 0 0 0 0 0 0 0 0 0 0 0 0 0 0 0 0 0 0 0 0 0 0 0 0 0 0 0 0 0 0 0 0 0 0 0 0 0 0
0 0 0 0 0 0 0 0 0 0 0 0 0 0 0 0 0 0 0 0 0 0 0 0 0 0 0 0 0 0 0 0 0 0 0 0 0 0 0 0 0 0 0 0
0 0 0 0 0 0 0 0 0 0 0 0 0 0 0 0 0 0 0 0 0 0 0 0 0 0 0 0 0 0 0 0 0 0 0 0 0 0 0 0 0 0 0 0
Wind_Speed_500mb
2 2 8 5 5 11 5 5 8 7 16 18 32 31 40 39 47 58 57 61 54 47 34 37 36 27 22 16 10 9 10 12 5 5 5 6 6 5 5 8 7 10 17 22
9 7 17 7 11 1 8 7 8 17 17 13 18 35 39 47 52 53 56 62 50 34 36 31 29 21 16 16 12 8 10 14 10 8 8 8 6 3 3 1 3 7 12 18
11 8 8 4 3 5 8 8 7 6 9 16 12 25 40 49 50 56 60 41 32 37 33 35 25 18 20 19 11 14 10 16 11 10 9 9 10 6 6 6 7 9 13 18
7 6 8 5 4 12 14 7 10 7 12 22 31 44 38 42 59 57 34 36 39 41 34 30 19 16 17 19 13 11 14 13 9 9 8 7 8 9 8 8 11 13 13 17
3 3 6 5 8 6 6 9 10 10 15 31 49 54 45 34 44 39 37 33 33 30 29 26 20 14 22 21 14 13 15 11 12 5 5 8 8 9 11 15 16 17 19 21
5 5 9 6 14 16 4 5 13 26 26 21 17 13 5 16 13 20 15 25 32 32 31 26 20 15 22 18 16 12 14 13 12 14 10 10 12 14 20 26 25 22 24 28
7 4 4 8 30 19 7 8 17 30 25 35 16 13 16 7 16 16 18 19 23 24 26 23 15 18 22 16 13 8 1 1 8 10 14 19 22 26 29 31 34 36 34 35
4 7 7 23 11 6 3 10 17 12 22 21 19 24 28 21 24 26 25 25 23 24 25 16 12 15 14 9 10 8 8 12 15 17 19 21 27 32 36 39 44 43 46 47
8 9 12 10 7 15 13 21 10 11 6 13 12 15 25 26 25 23 19 20 19 18 15 14 14 14 14 5 11 15 20 25 25 24 26 29 34 37 42 47 50 46 47 49
6 7 10 1 5 3 7 6 4 10 12 11 14 20 22 17 13 13 13 12 15 15 19 19 24 22 15 12 19 29 35 34 36 40 42 44 48 49 51 52 44 42 44 40
5 12 10 8 4 5 3 7 7 4 7 5 7 10 11 13 14 11 9 12 16 17 17 13 15 23 26 32 31 39 44 47 51 47 45 51 59 62 64 61 60 50 26 32
9 16 11 8 11 10 9 5 7 5 6 9 13 10 10 11 11 16 18 17 20 21 25 26 28 29 32 38 48 50 51 49 53 55 55 64 65 55 54 53 61 62 37 31
7 14 19 5 9 12 12 9 10 14 16 14 12 14 16 16 18 19 23 26 25 21 26 34 38 42 43 47 48 48 51 54 56 54 54 51 35 35 35 32 40 29 15 25
8 16 11 21 14 15 16 18 19 21 17 16 16 19 16 16 23 27 20 17 23 32 37 35 34 39 39 41 41 45 44 45 45 40 31 26 20 23 27 26 21 20 17 17
18 19 10 14 20 23 23 22 20 21 19 16 31 19 19 18 27 24 24 29 29 32 28 31 32 28 30 30 25 27 34 37 36 27 18 15 12 14 17 20 16 13 21 31
24 24 28 22 20 19 18 22 23 21 23 16 16 28 31 25 19 15 15 21 25 25 26 27 22 20 20 22 24 33 35 30 23 15 10 4 11 10 14 19 20 27 35 37
26 22 25 28 26 22 19 12 9 5 10 12 11 12 17 18 18 17 20 18 16 19 19 20 17 16 21 26 30 28 24 20 6 7 7 6 5 13 21 25 31 33 27 27
32 26 22 22 20 18 13 12 12 10 11 13 14 17 15 15 17 16 12 13 15 13 12 16 19 23 24 26 21 23 21 14 9 7 5 6 11 17 25 26 25 22 27 29
34 31 27 22 19 17 16 13 12 12 16 19 22 22 25 22 17 13 12 15 11 8 13 17 25 22 20 19 21 20 12 6 4 3 6 8 14 18 27 27 26 27 31 35
37 36 26 26 22 24 22 19 20 18 19 20 23 25 25 23 20 17 14 12 9 9 16 22 24 21 19 18 16 11 3 4 3 7 11 15 18 24 31 32 31 33 36 36
35 38 35 30 30 26 33 25 28 29 25 23 21 20 17 19 23 24 22 16 12 13 18 22 24 22 20 19 15 11 10 12 13 15 18 21 25 31 34 35 35 37 39 42
39 38 36 38 30 30 29 25 29 27 27 28 24 17 17 19 23 27 27 28 19 20 21 25 26 23 21 21 19 19 23 26 24 21 23 25 28 33 37 35 37 41 48 50
30 43 42 40 34 31 34 29 29 26 31 29 27 25 24 25 24 29 34 28 27 26 26 28 28 25 25 26 25 26 27 30 32 29 27 29 29 34 39 38 41 47 50 51
14 41 45 42 38 38 35 30 24 20 15 24 26 26 29 31 29 31 31 29 30 31 34 34 31 31 32 35 34 35 33 32 34 38 39 37 34 33 35 37 44 50 49 47
11 18 28 38 41 44 38 32 28 29 29 29 29 29 30 30 33 27 30 29 27 31 38 40 41 40 41 42 45 44 42 38 36 35 37 36 33 35 40 44 48 43 43 46
23 21 24 20 28 50 45 37 32 29 33 31 30 34 34 30 24 22 26 32 35 39 43 46 48 49 53 54 51 53 54 49 42 43 40 33 28 31 34 44 41 38 43 47
30 30 38 41 35 38 42 43 44 46 45 42 41 36 35 33 27 23 24 30 36 43 47 52 54 54 61 63 56 58 51 54 57 51 41 34 24 26 36 36 39 41 46 53
Wind_Direction_500mb
299 28 103 129 331 341 246 319 213 355 256 264 204 201 179 168 151 149 153 162 166 171 186 176 180 184 176 191 194 191 212 231 249 294 294 301 341 24 58 81 56 25 23 21
266 185 258 289 352 77 44 354 318 341 301 318 202 163 153 153 152 143 154 161 169 170 170 194 183 180 200 199 190 204 220 258 269 273 276 272 260 269 214 341 336 352 4 15
261 222 122 125 117 27 109 34 265 303 324 323 58 125 140 145 147 144 156 168 173 178 201 188 190 200 209 230 213 204 231 255 270 269 260 275 226 252 229 271 307 329 339 350
278 352 232 132 68 94 96 19 351 341 8 61 82 96 114 140 149 153 159 173 195 194 190 187 208 199 203 194 207 221 241 252 243 252 260 278 257 247 252 300 308 315 328 330
347 338 97 135 38 18 11 31 10 29 39 93 99 94 56 114 138 159 181 203 198 195 200 190 190 204 205 199 204 245 247 224 205 225 278 272 261 262 277 299 314 307 311 322
348 24 18 318 296 308 185 19 42 70 55 56 106 92 72 93 113 138 164 185 189 191 190 192 192 217 208 203 220 236 227 234 245 247 264 276 269 283 292 291 294 299 304 311
8 35 5 305 319 323 59 235 131 79 70 74 71 95 128 161 136 157 171 193 193 199 203 199 204 205 205 222 240 253 207 288 289 293 291 277 279 283 291 297 297 294 295 306
7 45 340 348 353 45 192 154 155 177 163 178 175 192 185 187 180 192 196 194 198 199 199 216 220 197 203 176 140 178 224 269 288 310 310 307 295 296 292 295 298 298 292 296
157 214 264 315 89 95 129 132 177 224 235 246 234 208 205 185 193 204 201 208 206 207 209 214 213 225 248 282 273 278 278 287 297 298 297 296 298 304 299 296 296 297 293 297
48 277 295 97 152 104 138 105 129 148 114 89 116 140 158 179 193 205 203 194 201 215 229 236 241 249 271 301 296 283 281 290 294 293 293 291 289 289 298 293 291 293 298 303
256 281 301 260 185 146 125 94 102 153 201 139 162 169 189 221 234 231 226 231 239 249 256 250 238 257 269 277 284 286 288 290 289 291 297 297 294 289 289 286 279 273 272 287
227 220 198 255 204 199 183 199 200 187 213 219 245 255 255 264 267 265 262 261 262 272 276 283 289 291 286 288 291 294 294 289 290 291 291 298 298 297 299 298 290 269 268 297
268 225 210 256 208 213 225 215 249 251 264 253 252 258 265 269 270 278 283 280 276 279 288 289 283 283 287 290 289 296 296 290 290 286 289 295 301 303 304 303 297 292 279 279
193 154 175 191 212 221 247 259 273 255 235 249 252 250 256 254 271 265 279 296 295 279 292 297 293 293 291 290 289 294 299 295 295 297 300 290 297 300 318 313 307 315 320 299
196 200 225 232 241 263 269 245 247 246 242 256 260 266 246 283 296 275 269 287 294 295 295 295 300 298 297 300 302 303 304 305 300 291 284 291 294 310 313 319 330 318 309 316
210 228 250 280 255 264 267 261 269 277 272 283 283 249 244 267 274 290 282 287 299 303 307 310 310 307 309 310 309 310 311 307 300 281 257 283 341 322 325 325 315 315 318 319
218 228 245 249 259 275 273 268 220 264 245 269 276 256 253 262 278 281 290 297 303 309 313 314 316 318 319 316 314 315 321 324 286 249 239 302 330 332 335 322 315 316 321 322
247 256 265 267 261 254 247 231 239 260 262 272 274 274 262 270 286 282 280 305 320 325 332 331 327 326 318 319 320 319 316 302 259 263 264 300 318 338 341 334 334 335 338 332
233 243 256 253 247 243 246 235 244 257 272 273 276 284 263 273 276 286 293 311 314 319 332 330 329 329 328 324 319 323 315 281 260 272 280 314 325 322 340 339 336 336 337 342
238 238 255 257 248 245 243 243 243 257 254 267 282 287 273 278 273 269 272 291 295 305 321 328 335 333 331 323 317 321 295 195 284 293 303 307 313 325 332 332 327 328 332 332
250 250 256 247 255 259 243 258 252 247 257 270 273 289 286 280 263 256 258 274 278 285 307 324 329 320 320 321 312 286 268 256 276 297 308 304 302 318 321 321 321 318 321 325
259 255 243 246 251 249 243 241 246 242 258 262 264 262 290 290 262 262 266 265 270 279 293 310 312 309 300 310 309 303 283 271 265 276 291 303 299 301 312 312 316 319 318 318
259 239 246 239 237 240 236 239 235 244 252 256 251 258 278 281 276 276 280 278 273 272 282 284 291 295 289 287 293 291 292 277 264 270 280 290 296 298 308 311 311 314 310 314
274 248 251 231 240 233 221 233 241 242 240 233 250 258 269 269 273 286 288 281 275 280 282 274 274 281 284 284 284 283 284 282 274 273 279 283 291 301 302 303 303 306 306 308
262 270 249 237 232 224 240 242 238 241 244 248 248 260 262 268 272 280 279 271 270 275 280 277 274 274 278 281 280 279 279 279 275 275 276 277 285 292 291 300 306 308 307 309
234 243 271 272 256 245 240 236 244 258 243 244 252 258 251 250 256 261 261 267 272 274 278 284 282 282 281 279 279 279 277 276 280 271 271 270 270 283 298 305 308 306 308 307
240 238 242 255 262 258 243 245 251 253 245 249 254 258 250 247 252 263 279 284 279 278 281 286 285 287 284 276 277 280 283 276 274 263 248 247 260 291 306 304 307 306 305 307
Wind_Speed_850mb
2 2 8 5 5 11 5 5 8 7 16 18 32 31 40 39 47 58 57 61 54 47 34 37 36 27 22 16 10 9 10 12 5 5 5 6 6 5 5 8 7 10 17 22
9 7 17 7 11 1 8 7 8 17 17 13 18 35 39 47 52 53 56 62 50 34 36 31 29 21 16 16 12 8 10 14 10 8 8 8 6 3 3 1 3 7 12 18
11 8 8 4 3 5 8 8 7 6 9 16 12 25 40 49 50 56 60 41 32 37 33 35 25 18 20 19 11 14 10 16 11 10 9 9 10 6 6 6 7 9 13 18
7 6 8 5 4 12 14 7 10 7 12 22 31 44 38 42 59 57 34 36 39 41 34 30 19 16 17 19 13 11 14 13 9 9 8 7 8 9 8 8 11 13 13 17
3 3 6 5 8 6 6 9 10 10 15 31 49 54 45 34 44 39 37 33 33 30 29 26 20 14 22 21 14 13 15 11 12 5 5 8 8 9 11 15 16 17 19 21
5 5 9 6 14 16 4 5 13 26 26 21 17 13 5 16 13 20 15 25 32 32 31 26 20 15 22 18 16 12 14 13 12 14 10 10 12 14 20 26 25 22 24 28
7 4 4 8 30 19 7 8 17 30 25 35 16 13 16 7 16 16 18 19 23 24 26 23 15 18 22 16 13 8 1 1 8 10 14 19 22 26 29 31 34 36 34 35
4 7 7 23 11 6 3 10 17 12 22 21 19 24 28 21 24 26 25 25 23 24 25 16 12 15 14 9 10 8 8 12 15 17 19 21 27 32 36 39 44 43 46 47
8 9 12 10 7 15 13 21 10 11 6 13 12 15 25 26 25 23 19 20 19 18 15 14 14 14 14 5 11 15 20 25 25 24 26 29 34 37 42 47 50 46 47 49
6 7 10 1 5 3 7 6 4 10 12 11 14 20 22 17 13 13 13 12 15 15 19 19 24 22 15 12 19 29 35 34 36 40 42 44 48 49 51 52 44 42 44 40
5 12 10 8 4 5 3 7 7 4 7 5 7 10 11 13 14 11 9 12 16 17 17 13 15 23 26 32 31 39 44 47 51 47 45 51 59 62 64 61 60 50 26 32
9 16 11 8 11 10 9 5 7 5 6 9 13 10 10 11 11 16 18 17 20 21 25 26 28 29 32 38 48 50 51 49 53 55 55 64 65 55 54 53 61 62 37 31
7 14 19 5 9 12 12 9 10 14 16 14 12 14 16 16 18 19 23 26 25 21 26 34 38 42 43 47 48 48 51 54 56 54 54 51 35 35 35 32 40 29 15 25
8 16 11 21 14 15 16 18 19 21 17 16 16 19 16 16 23 27 20 17 23 32 37 35 34 39 39 41 41 45 44 45 45 40 31 26 20 23 27 26 21 20 17 17
18 19 10 14 20 23 23 22 20 21 19 16 31 19 19 18 27 24 24 29 29 32 28 31 32 28 30 30 25 27 34 37 36 27 18 15 12 14 17 20 16 13 21 31
24 24 28 22 20 19 18 22 23 21 23 16 16 28 31 25 19 15 15 21 25 25 26 27 22 20 20 22 24 33 35 30 23 15 10 4 11 10 14 19 20 27 35 37
26 22 25 28 26 22 19 12 9 5 10 12 11 12 17 18 18 17 20 18 16 19 19 20 17 16 21 26 30 28 24 20 6 7 7 6 5 13 21 25 31 33 27 27
32 26 22 22 20 18 13 12 12 10 11 13 14 17 15 15 17 16 12 13 15 13 12 16 19 23 24 26 21 23 21 14 9 7 5 6 11 17 25 26 25 22 27 29
34 31 27 22 19 17 16 13 12 12 16 19 22 22 25 22 17 13 12 15 11 8 13 17 25 22 20 19 21 20 12 6 4 3 6 8 14 18 27 27 26 27 31 35
37 36 26 26 22 24 22 19 20 18 19 20 23 25 25 23 20 17 14 12 9 9 16 22 24 21 19 18 16 11 3 4 3 7 11 15 18 24 31 32 31 33 36 36
35 38 35 30 30 26 33 25 28 29 25 23 21 20 17 19 23 24 22 16 12 13 18 22 24 22 20 19 15 11 10 12 13 15 18 21 25 31 34 35 35 37 39 42
39 38 36 38 30 30 29 25 29 27 27 28 24 17 17 19 23 27 27 28 19 20 21 25 26 23 21 21 19 19 23 26 24 21 23 25 28 33 37 35 37 41 48 50
30 43 42 40 34 31 34 29 29 26 31 29 27 25 24 25 24 29 34 28 27 26 26 28 28 25 25 26 25 26 27 30 32 29 27 29 29 34 39 38 41 47 50 51
14 41 45 42 38 38 35 30 24 20 15 24 26 26 29 31 29 31 31 29 30 31 34 34 31 31 32 35 34 35 33 32 34 38 39 37 34 33 35 37 44 50 49 47
11 18 28 38 41 44 38 32 28 29 29 29 29 29 30 30 33 27 30 29 27 31 38 40 41 40 41 42 45 44 42 38 36 35 37 36 33 35 40 44 48 43 43 46
23 21 24 20 28 50 45 37 32 29 33 31 30 34 34 30 24 22 26 32 35 39 43 46 48 49 53 54 51 53 54 49 42 43 40 33 28 31 34 44 41 38 43 47
30 30 38 41 35 38 42 43 44 46 45 42 41 36 35 33 27 23 24 30 36 43 47 52 54 54 61 63 56 58 51 54 57 51 41 34 24 26 36 36 39 41 46 53
Wind_Direction_850mb
299 28 103 129 331 341 246 319 213 355 256 264 204 201 179 168 151 149 153 162 166 171 186 176 180 184 176 191 194 191 212 231 249 294 294 301 341 24 58 81 56 25 23 21
266 185 258 289 352 77 44 354 318 341 301 318 202 163 153 153 152 143 154 161 169 170 170 194 183 180 200 199 190 204 220 258 269 273 276 272 260 269 214 341 336 352 4 15
261 222 122 125 117 27 109 34 265 303 324 323 58 125 140 145 147 144 156 168 173 178 201 188 190 200 209 230 213 204 231 255 270 269 260 275 226 252 229 271 307 329 339 350
278 352 232 132 68 94 96 19 351 341 8 61 82 96 114 140 149 153 159 173 195 194 190 187 208 199 203 194 207 221 241 252 243 252 260 278 257 247 252 300 308 315 328 330
347 338 97 135 38 18 11 31 10 29 39 93 99 94 56 114 138 159 181 203 198 195 200 190 190 204 205 199 204 245 247 224 205 225 278 272 261 262 277 299 314 307 311 322
348 24 18 318 296 308 185 19 42 70 55 56 106 92 72 93 113 138 164 185 189 191 190 192 192 217 208 203 220 236 227 234 245 247 264 276 269 283 292 291 294 299 304 311
8 35 5 305 319 323 59 235 131 79 70 74 71 95 128 161 136 157 171 193 193 199 203 199 204 205 205 222 240 253 207 288 289 293 291 277 279 283 291 297 297 294 295 306
7 45 340 348 353 45 192 154 155 177 163 178 175 192 185 187 180 192 196 194 198 199 199 216 220 197 203 176 140 178 224 269 288 310 310 307 295 296 292 295 298 298 292 296
157 214 264 315 89 95 129 132 177 224 235 246 234 208 205 185 193 204 201 208 206 207 209 214 213 225 248 282 273 278 278 287 297 298 297 296 298 304 299 296 296 297 293 297
48 277 295 97 152 104 138 105 129 148 114 89 116 140 158 179 193 205 203 194 201 215 229 236 241 249 271 301 296 283 281 290 294 293 293 291 289 289 298 293 291 293 298 303
256 281 301 260 185 146 125 94 102 153 201 139 162 169 189 221 234 231 226 231 239 249 256 250 238 257 269 277 284 286 288 290 289 291 297 297 294 289 289 286 279 273 272 287
227 220 198 255 204 199 183 199 200 187 213 219 245 255 255 264 267 265 262 261 262 272 276 283 289 291 286 288 291 294 294 289 290 291 291 298 298 297 299 298 290 269 268 297
268 225 210 256 208 213 225 215 249 251 264 253 252 258 265 269 270 278 283 280 276 279 288 289 283 283 287 290 289 296 296 290 290 286 289 295 301 303 304 303 297 292 279 279
193 154 175 191 212 221 247 259 273 255 235 249 252 250 256 254 271 265 279 296 295 279 292 297 293 293 291 290 289 294 299 295 295 297 300 290 297 300 318 313 307 315 320 299
196 200 225 232 241 263 269 245 247 246 242 256 260 266 246 283 296 275 269 287 294 295 295 295 300 298 297 300 302 303 304 305 300 291 284 291 294 310 313 319 330 318 309 316
210 228 250 280 255 264 267 261 269 277 272 283 283 249 244 267 274 290 282 287 299 303 307 310 310 307 309 310 309 310 311 307 300 281 257 283 341 322 325 325 315 315 318 319
218 228 245 249 259 275 273 268 220 264 245 269 276 256 253 262 278 281 290 297 303 309 313 314 316 318 319 316 314 315 321 324 286 249 239 302 330 332 335 322 315 316 321 322
247 256 265 267 261 254 247 231 239 260 262 272 274 274 262 270 286 282 280 305 320 325 332 331 327 326 318 319 320 319 316 302 259 263 264 300 318 338 341 334 334 335 338 332
233 243 256 253 247 243 246 235 244 257 272 273 276 284 263 273 276 286 293 311 314 319 332 330 329 329 328 324 319 323 315 281 260 272 280 314 325 322 340 339 336 336 337 342
238 238 255 257 248 245 243 243 243 257 254 267 282 287 273 278 273 269 272 291 295 305 321 328 335 333 331 323 317 321 295 195 284 293 303 307 313 325 332 332 327 328 332 332
250 250 256 247 255 259 243 258 252 247 257 270 273 289 286 280 263 256 258 274 278 285 307 324 329 320 320 321 312 286 268 256 276 297 308 304 302 318 321 321 321 318 321 325
259 255 243 246 251 249 243 241 246 242 258 262 264 262 290 290 262 262 266 265 270 279 293 310 312 309 300 310 309 303 283 271 265 276 291 303 299 301 312 312 316 319 318 318
259 239 246 239 237 240 236 239 235 244 252 256 251 258 278 281 276 276 280 278 273 272 282 284 291 295 289 287 293 291 292 277 264 270 280 290 296 298 308 311 311 314 310 314
274 248 251 231 240 233 221 233 241 242 240 233 250 258 269 269 273 286 288 281 275 280 282 274 274 281 284 284 284 283 284 282 274 273 279 283 291 301 302 303 303 306 306 308
262 270 249 237 232 224 240 242 238 241 244 248 248 260 262 268 272 280 279 271 270 275 280 277 274 274 278 281 280 279 279 279 275 275 276 277 285 292 291 300 306 308 307 309
234 243 271 272 256 245 240 236 244 258 243 244 252 258 251 250 256 261 261 267 272 274 278 284 282 282 281 279 279 279 277 276 280 271 271 270 270 283 298 305 308 306 308 307
240 238 242 255 262 258 243 245 251 253 245 249 254 258 250 247 252 263 279 284 279 278 281 286 285 287 284 276 277 280 283 276 274 263 248 247 260 291 306 304 307 306 305 307